User: anonymous   Login
Location: Caltech
(34.1382°N, 118.1253°W)
Time: 10:59:20
(UTC-07:00)
Language:

SL-08 R/B - Orbit

View from above orbital plane
View from above orbital plane
View from above satellite
View from above satellite

Ground track
Ground track

The orbit data is extracted from the following two-line orbital elements,

1 27561U 02054C   15241.92905651  .00000121  00000-0  37887-4 0  9993
2 27561 098.1675 015.6088 0047343 050.6640 309.8739 14.55394596676671
Epoch (UTC): 29 August 2015 22:17:50
Eccentricity: 0.0047343
inclination: 98.1675°
perigee height: 674 km
apogee height: 741 km
right ascension of ascending node: 15.6088°
argument of perigee: 50.6640°
revolutions per day: 14.55394596
mean anomaly at epoch: 309.8739°
orbit number at epoch: 67667

The dashed part of the orbit path shows where the satellite is in the earth's shadow,  

DLR